Regional Weather Roundup
Issued by NWS

Home | Current Version | Previous Version | Graphics & Text | Print | Product List | Glossary On
Versions: 1 2 3 4 5 6 7 8 9 10 11 12 13 14 15 16 17 18 19 20 21 22 23 24 25 26 27 28 29 30 31 32 33 34 35 36 37 38 39 40 41 42 43 44 45 46 47 48 49 50
000
ASUS43 KLMK 240910
RWRKY
KENTUCKY REGIONAL WEATHER ROUNDUP
NATIONAL WEATHER SERVICE LOUISVILLE KY
500 AM EDT SUN SEP 24 2017

NOTE "FAIR" INDICATES FEW OR NO CLOUDS BELOW 12,000 FEET
WITH NO SIGNIFICANT WEATHER AND/OR OBSTRUCTIONS TO VISIBILITY.

KYZ001>023-026-027-061>063-070>075-241000-
WESTERN AND SOUTH CENTRAL KENTUCKY

CITY           SKY/WX    TMP DP  RH WIND       PRES   REMARKS
PADUCAH        CLEAR     68  66  93 CALM      30.01R FOG
HENDERSON      FOG       63  61  94 CALM      30.04S VSB 1/2
OWENSBORO      CLEAR     68  65  90 E3        30.04S
HOPKINSVILLE   CLEAR     67  65  96 NE5       30.02S
BOWLING GREEN  CLEAR     65  64  97 CALM      30.04S
GLASGOW        CLEAR     63  63 100 CALM      30.05R FOG
$$

KYZ024-025-028>034-038-045-046-053-241000-
NORTH CENTRAL KENTUCKY

CITY           SKY/WX    TMP DP  RH WIND       PRES   REMARKS
LOUISVILLE/SDF CLEAR     70  66  87 N3        30.06R
LOUISVILLE/LOU CLEAR     65  65 100 CALM      30.06S FOG
FORT KNOX      NOT AVBL
$$

KYZ035>037-039>044-047>052-055>060-089>105-241000-
NORTHEAST KENTUCKY

CITY           SKY/WX    TMP DP  RH WIND       PRES   REMARKS
LEXINGTON      CLEAR     69  61  75 E6        30.08S
COVINGTON      CLEAR     69  63  81 E3        30.09S
FRANKFORT      CLEAR     64  60  87 CALM      30.06S
$$

KYZ054-064>069-076>088-106>120-241000-
SOUTHEAST KENTUCKY

CITY           SKY/WX    TMP DP  RH WIND       PRES   REMARKS
JACKSON        CLEAR     66  62  87 E5        30.11R
LONDON         CLEAR     63  61  93 CALM      30.08S
SOMERSET       CLEAR     61  61 100 CALM      30.09R
MIDDLESBORO    CLEAR     62  62 100 CALM      30.10S
MONTICELLO     SUNNY     60  59  96 CALM      30.09R FOG
$$





USA.gov is the U.S. government's official web portal to all federal, state and local government web resources and services.